TimeCST,TemperatureF,Dew PointF,Humidity,Sea Level PressureIn,VisibilityMPH,Wind Direction,Wind SpeedMPH,Gust SpeedMPH,PrecipitationIn,Events,Conditions,WindDirDegrees,DateUTC
12:53 AM,36.0,35.1,97,30.30,10.0,Calm,Calm,-,N/A,,Clear,0,2012-12-05 06:53:00
1:53 AM,37.0,35.1,93,30.29,10.0,Calm,Calm,-,N/A,,Clear,0,2012-12-05 07:53:00
2:53 AM,36.0,33.1,89,30.30,3.0,Calm,Calm,-,N/A,,Clear,0,2012-12-05 08:53:00
2:55 AM,35.6,33.8,93,30.30,1.8,Calm,Calm,-,N/A,,Clear,0,2012-12-05 08:55:00
3:27 AM,33.8,33.8,100,30.30,0.5,Calm,Calm,-,N/A,Fog,Fog,0,2012-12-05 09:27:00
3:53 AM,34.0,33.1,96,30.31,0.8,Calm,Calm,-,N/A,,Mist,0,2012-12-05 09:53:00
3:57 AM,35.6,33.8,93,30.31,1.2,Calm,Calm,-,N/A,,Clear,0,2012-12-05 09:57:00
4:00 AM,35.6,33.8,93,30.31,4.0,Calm,Calm,-,N/A,,Clear,0,2012-12-05 10:00:00
4:40 AM,33.8,32.0,93,30.32,1.5,Calm,Calm,-,N/A,,Clear,0,2012-12-05 10:40:00
4:53 AM,33.1,32.0,96,30.34,1.0,Calm,Calm,-,N/A,,Clear,0,2012-12-05 10:53:00
5:02 AM,35.6,33.8,93,30.33,0.8,Calm,Calm,-,N/A,,Clear,0,2012-12-05 11:02:00
5:14 AM,33.8,33.8,100,30.34,1.5,Calm,Calm,-,N/A,,Clear,0,2012-12-05 11:14:00
5:27 AM,33.8,33.8,100,30.34,0.8,Calm,Calm,-,N/A,,Clear,0,2012-12-05 11:27:00
5:37 AM,33.8,33.8,100,30.34,0.5,Calm,Calm,-,N/A,Fog,Fog,0,2012-12-05 11:37:00
5:44 AM,33.8,33.8,100,30.34,0.2,Calm,Calm,-,N/A,Fog,Fog,0,2012-12-05 11:44:00
5:53 AM,33.1,32.0,96,30.35,0.5,Calm,Calm,-,N/A,Fog,Fog,0,2012-12-05 11:53:00
6:17 AM,33.8,33.8,100,30.34,0.8,Calm,Calm,-,N/A,,Mist,0,2012-12-05 12:17:00
6:34 AM,33.8,33.8,100,30.35,0.5,Calm,Calm,-,N/A,Fog,Fog,0,2012-12-05 12:34:00
6:53 AM,33.1,32.0,96,30.35,0.8,Calm,Calm,-,N/A,,Clear,0,2012-12-05 12:53:00
8:53 AM,41.0,39.9,96,30.36,10.0,Calm,Calm,-,N/A,,Clear,0,2012-12-05 14:53:00
9:53 AM,48.9,41.0,74,30.35,10.0,NNE,3.5,-,N/A,,Clear,30,2012-12-05 15:53:00
10:53 AM,54.0,41.0,62,30.35,10.0,Calm,Calm,-,N/A,,Clear,0,2012-12-05 16:53:00
11:53 AM,57.0,39.9,53,30.32,10.0,NE,3.5,-,N/A,,Clear,50,2012-12-05 17:53:00
12:53 PM,60.1,39.9,47,30.28,10.0,ENE,6.9,-,N/A,,Clear,60,2012-12-05 18:53:00
1:53 PM,60.1,39.9,47,30.25,10.0,NNE,9.2,-,N/A,,Clear,30,2012-12-05 19:53:00
2:53 PM,60.1,37.0,42,30.25,10.0,NE,10.4,-,N/A,,Clear,40,2012-12-05 20:53:00
3:53 PM,59.0,35.1,41,30.23,10.0,NE,6.9,-,N/A,,Clear,40,2012-12-05 21:53:00
4:53 PM,51.1,35.1,54,30.22,10.0,NE,6.9,-,N/A,,Clear,50,2012-12-05 22:53:00
5:53 PM,48.9,36.0,61,30.23,10.0,NE,4.6,-,N/A,,Clear,50,2012-12-05 23:53:00
6:53 PM,45.0,35.1,68,30.23,10.0,NE,8.1,-,N/A,,Clear,50,2012-12-06 00:53:00
7:53 PM,45.0,35.1,68,30.22,10.0,NE,6.9,-,N/A,,Clear,40,2012-12-06 01:53:00
8:53 PM,45.0,35.1,68,30.20,10.0,NE,3.5,-,N/A,,Clear,50,2012-12-06 02:53:00
10:53 PM,39.9,36.0,86,30.16,10.0,East,3.5,-,N/A,,Clear,80,2012-12-06 04:53:00
11:53 PM,39.9,35.1,83,30.15,10.0,Calm,Calm,-,N/A,,Clear,0,2012-12-06 05:53:00